This demonstration page uses our WeatherBlox Daily Observations layout. Learn more.

41.55636, -103.73856

Hourly Observations for May 30, 2018

Temp ( °F °C ) Dew Point ( °F °C ) Humidity (%) Winds ( mph kmh ) Pressure ( in mb ) Visibility ( mi km ) Precip ( " mm )
12:53 am 00:53 Clear 57 13.9 52 11.1 83 83 W 9 15 29.77 1008 10 16.09344 0 0
1:53 am 01:53 Clear 55 12.8 52 11.1 90 90 WNW 7 11 29.77 1008 10 16.09344 0 0
2:53 am 02:53 Clear 52 11.1 52 11.1 100 100 NNW 6 9 29.77 1008 10 16.09344 0 0
3:53 am 03:53 Clear 51 10.6 51 10.6 100 100 W 6 9 29.77 1008 10 16.09344 0 0
4:53 am 04:53 Clear 51 10.6 51 10.6 100 100 NW 5 7 29.77 1008 10 16.09344 0 0
5:53 am 05:53 Sunny 52 11.1 51 10.6 97 97 NW 6 9 29.77 1008 10 16.09344 0 0
6:53 am 06:53 Sunny 56 13.3 54 12.2 93 93 NW 7 11 29.77 1008 10 16.09344 0 0
7:53 am 07:53 Sunny 61 16.1 54 12.2 78 78 NW 9 15 29.77 1008 10 16.09344 0 0
8:53 am 08:53 Sunny 66 18.9 55 12.8 68 68 WNW 9 15 29.77 1008 10 16.09344 0 0
9:53 am 09:53 Sunny 70 21.1 57 13.9 64 64 WNW 9 15 29.77 1008 10 16.09344 0 0
10:53 am 10:53 Sunny 73 22.8 55 12.8 53 53 NW 7 11 29.74 1007 10 16.09344 0 0
11:53 am 11:53 Sunny 75 23.9 56 13.3 52 52 NNW 5 7 29.74 1007 10 16.09344 0 0
12:53 pm 12:53 Sunny 77 25 57 13.9 50 50 Calm 29.74 1007 10 16.09344 0 0
1:53 pm 13:53 Sunny 79 26.1 53 11.7 41 41 WSW 9 15 29.71 1006 10 16.09344 0 0
2:53 pm 14:53 Sunny 81 27.2 51 10.6 35 35 Calm 29.68 1005 10 16.09344 0 0
3:53 pm 15:53 Sunny 80 26.7 52 11.1 38 38 N 5 7 29.65 1004 10 16.09344 0 0
4:53 pm 16:53 Sunny 82 27.8 51 10.6 34 34 N 5 7 29.65 1004 10 16.09344 0 0
5:53 pm 17:53 Sunny 81 27.2 49 9.4 33 33 Calm 29.65 1004 10 16.09344 0 0
6:53 pm 18:53 Sunny 76 24.4 55 12.8 48 48 SSE 7 11 29.65 1004 10 16.09344 0 0
7:53 pm 19:53 Sunny 72 22.2 59 15 64 64 ESE 8 13 29.65 1004 10 16.09344 0 0
8:53 pm 20:53 Clear 67 19.4 59 15 76 76 E 6 9 29.68 1005 10 16.09344 0 0
9:53 pm 21:53 Clear 64 17.8 59 15 84 84 E 8 13 29.68 1005 10 16.09344 0 0
10:53 pm 22:53 Clear 63 17.2 58 14.4 84 84 E 5 7 29.68 1005 10 16.09344 0 0
11:53 pm 23:53 Clear 62 16.7 57 13.9 84 84 E 7 11 29.68 1005 10 16.09344 0 0

Powered by AerisWeather